Weather History for Altoona, PA

Change the Weather History Date:

Thursday, November 8, 2012

  Actual Average Record
Temperature  
Mean Temperature 38 °F 44 °F  
Max Temperature 45 °F 53 °F 71 °F (1994)
Min Temperature 30 °F 36 °F 20 °F (1959)
Degree Days  
Heating Degree Days 28 21  
Month to date heating degree days 156  
Since 1 July heating degree days 763  
Cooling Degree Days 0 0  
Month to date cooling degree days 0  
Year to date cooling degree days 522  
Moisture  
Dew Point 21 °F    
Average Humidity 55    
Maximum Humidity 73    
Minimum Humidity 37    
Precipitation  
Precipitation 0.00 in 0.10 in 1.70 in (1996)
Month to date precipitation 0.84  
Year to date precipitation 27.82  
Sea Level Pressure  
Sea Level Pressure 30.06 in    
Wind  
Wind Speed 10 mph (NW)    
Max Wind Speed 21 mph    
Max Gust Speed 25 mph    
Visibility 10 miles    
Events      
T = Trace of Precipitation, MM = Missing Value Source: NWS Daily Summary

Daily Weather History Graph

Daily Weather History Graph

Search for Another Location

Airport:

Trip Planner

Search our weather history database for the weather conditions in past years. The results will help you decide how hot, cold, wet, or windy it might be!

Date:

Astronomy

Nov. 08, 2012 Rise Set
Actual Time 6:51 AM EST 5:02 PM EST
Civil Twilight 6:22 AM EST 5:30 PM EST
Nautical Twilight 5:50 AM EST 6:03 PM EST
Astronomical Twilight 5:18 AM EST 6:35 PM EST
Moon 12:44 AM EST (11/8) 1:42 PM EST (11/8)
Length of Visible Light 11h 08m
Length of Day
10h 10m
Waning Crescent, 33% of the Moon is Illuminated
Nov 8
Waning Crescent
Nov 13
New
Nov 20
First Quarter
Nov 28
Full
Dec 6
Last Quarter

Hourly Weather History & Observations

Time (EST) Temp. Windchill Dew Point Humidity Pressure Visibility Wind Dir Wind Speed Gust Speed Precip Events Conditions
12:53 AM 32.0 °F 28.7 °F 18.0 °F 56% 30.00 in 10.0 mi North 3.5 mph - N/A   Clear
1:53 AM 32.0 °F - 16.0 °F 52% 30.00 in 10.0 mi Calm Calm - N/A   Clear
2:53 AM 32.0 °F 23.0 °F 17.1 °F 54% 30.00 in 10.0 mi NW 11.5 mph 16.1 mph N/A   Clear
3:53 AM 30.9 °F 21.7 °F 18.0 °F 59% 30.00 in 10.0 mi NW 11.5 mph - N/A   Clear
4:53 AM 32.0 °F 24.8 °F 18.0 °F 56% 30.02 in 10.0 mi WNW 8.1 mph - N/A   Clear
5:53 AM 30.0 °F 20.0 °F 19.9 °F 66% 30.02 in 10.0 mi WNW 12.7 mph - N/A   Clear
6:53 AM 30.0 °F 20.5 °F 19.0 °F 64% 30.04 in 10.0 mi NW 11.5 mph - N/A   Clear
7:53 AM 30.0 °F 18.3 °F 19.9 °F 66% 30.06 in 10.0 mi NW 17.3 mph - N/A   Clear
8:53 AM 33.1 °F 21.2 °F 21.0 °F 61% 30.08 in 10.0 mi NW 20.7 mph - N/A   Clear
9:53 AM 35.1 °F 24.8 °F 19.9 °F 54% 30.09 in 10.0 mi NW 17.3 mph 21.9 mph N/A   Clear
10:53 AM 37.9 °F 32.1 °F 19.0 °F 47% 30.09 in 10.0 mi NNW 8.1 mph - N/A   Clear
12:53 PM 43.0 °F 37.2 °F 19.0 °F 38% 30.04 in 10.0 mi NNW 10.4 mph 17.3 mph N/A   Clear
1:53 PM 44.1 °F 41.5 °F 19.9 °F 38% 30.04 in 10.0 mi WNW 4.6 mph - N/A   Clear
2:53 PM 45.0 °F 37.6 °F 19.9 °F 37% 30.02 in 10.0 mi NW 17.3 mph 25.3 mph N/A   Clear
3:53 PM 45.0 °F 40.6 °F 21.0 °F 39% 30.03 in 10.0 mi NNW 8.1 mph 21.9 mph N/A   Clear
4:53 PM 42.1 °F 34.2 °F 23.0 °F 47% 30.05 in 10.0 mi NW 16.1 mph 25.3 mph N/A   Clear
5:53 PM 41.0 °F 33.1 °F 25.0 °F 53% 30.08 in 10.0 mi WNW 15.0 mph - N/A   Clear
6:53 PM 39.9 °F 30.8 °F 26.1 °F 58% 30.10 in 10.0 mi NW 18.4 mph 23.0 mph N/A   Clear
7:53 PM 39.9 °F 31.1 °F 27.0 °F 60% 30.11 in 10.0 mi WNW 17.3 mph - N/A   Clear
8:53 PM 39.0 °F 30.3 °F 27.0 °F 62% 30.11 in 10.0 mi WNW 16.1 mph - N/A   Clear
9:53 PM 37.0 °F 29.8 °F 27.0 °F 67% 30.12 in 10.0 mi NW 10.4 mph - N/A   Clear
10:53 PM 36.0 °F 30.3 °F 26.1 °F 67% 30.12 in 10.0 mi NW 6.9 mph - N/A   Clear
11:53 PM 34.0 °F 26.0 °F 26.1 °F 73% 30.13 in 10.0 mi NW 10.4 mph - N/A   Clear